• Join FlightAware (Why Join?)
  • Login
  • US Flag 
01:50PM EDT


 

Airport Tracker/Info


-or-


 

Live Flight TrackerFlight Track Log ✈ UCA4772 ✈ 21-Oct-2013 ✈ KBWI - KCLE

Flight Track Log - Related Links

Times and Time Zones

All times are in EDT time to prevent confusion due to time zone crossing. See the UCA4772 flight status page for this flight to view local times or setup timezone preferences in your user account.

Time Position Orientation Groundspeed Altitude Reporting Facility
EDT Latitude Longitude Course Direction KTS MPH feet Rate Location/Type
01:43PM 39.1833 -76.7500 336° Northwest 159 183 2,000  Level Potomac TRACON
01:44PM 39.1833 -76.8000 270° West 183 211 3,400 960 Climbing Potomac TRACON
01:45PM 39.2167 -76.8667 303° West 207 238 3,900 240 Climbing Potomac TRACON
01:46PM 39.2333 -76.9500 285° West 244 281 3,900 360 Level Potomac TRACON
01:47PM 39.2667 -77.0333 297° West 248 285 4,700 900 Climbing Potomac TRACON
01:48PM 39.3825 -77.1141 336° Northwest  Level Estimated
01:48PM 39.3000 -77.1000 303° West 215 247 5,800  Level Potomac TRACON
01:49PM 39.3167 -77.1833 285° West 223 257 6,600 780 Climbing Potomac TRACON
01:50PM 39.3500 -77.2500 303° West 229 264 7,400 780 Climbing Potomac TRACON
01:51PM 39.4167 -77.2833 339° North 239 275 8,200 660 Climbing Potomac TRACON
01:53PM 39.5317 -77.3781 328° Northwest 237 273 9,700 660 Climbing Washington Center
01:54PM 39.5914 -77.4200 332° Northwest 237 273 10,500 780 Climbing Washington Center
01:55PM 39.6469 -77.4644 328° Northwest 237 273 11,300 780 Climbing Washington Center
01:56PM 39.6667 -77.5406 289° West 218 251 12,100 780 Climbing Washington Center
01:57PM 39.6883 -77.6111 292° West 213 245 12,900 720 Climbing Washington Center
01:58PM 39.7103 -77.6819 292° West 213 245 13,600 720 Climbing Washington Center
02:00PM 39.7594 -77.8375 292° West 216 249 15,100 600 Climbing Cleveland Center
02:01PM 39.7825 -77.9128 292° West 219 252 15,600 540 Climbing Cleveland Center
02:02PM 39.8058 -77.9881 292° West 222 255 16,300 600 Climbing Cleveland Center
02:03PM 39.8283 -78.0647 291° West 225 259 16,900 660 Climbing Cleveland Center
02:04PM 39.8694 -78.1311 309° West 236 272 17,700 720 Climbing Cleveland Center
02:05PM 39.9158 -78.2097 308° West 230 265 18,400 540 Climbing Cleveland Center
02:06PM 39.9536 -78.2742 307° West 229 264 18,900 480 Climbing Cleveland Center
02:08PM 40.0064 -78.3623 308° West  Level FlightAware Approximate
02:08PM 40.0317 -78.4050 308° West 230 265 19,900  Level Cleveland Center
02:09PM 40.0708 -78.4694 308° West 229 264 20,400 480 Climbing Cleveland Center
02:10PM 40.1172 -78.5486 307° West 229 264 21,000 480 Climbing Cleveland Center
02:11PM 40.1558 -78.6144 308° West 229 264 21,500 480 Climbing Cleveland Center
02:12PM 40.1936 -78.6778 308° West 226 260 22,000 480 Climbing Cleveland Center
02:13PM 40.2308 -78.7450 306° West 229 264 22,500 480 Climbing Cleveland Center
02:14PM 40.2681 -78.8067 308° West 220 253 23,000 480 Climbing Cleveland Center
02:15PM 40.3047 -78.8686 308° West 217 250 23,500 480 Climbing Cleveland Center
02:17PM 40.3478 -78.9436 307° West 216 249 24,000 240 Climbing Cleveland Center
02:18PM 40.3844 -79.0075 307° West 219 252 24,000  Level Cleveland Center
02:19PM 40.4239 -79.0747 308° West 230 265 24,000  Level Cleveland Center
02:20PM 40.4647 -79.1436 308° West 239 275 24,000 -60 Level Cleveland Center
02:21PM 40.5036 -79.2131 306° West 237 273 23,900 -60 Descending Cleveland Center
02:22PM 40.5511 -79.2942 308° West 235 270 23,900  Level Cleveland Center
02:23PM 40.5856 -79.3539 307° West 241 277 24,000  Climbing Cleveland Center
02:24PM 40.6328 -79.4353 307° West 237 273 24,000  Level Cleveland Center
02:25PM 40.6717 -79.5047 306° West 238 274 24,000 -60 Level Cleveland Center
02:26PM 40.7111 -79.5722 308° West 235 270 23,900  Descending Cleveland Center
02:27PM 40.7500 -79.6414 307° West 237 273 24,000  Climbing Cleveland Center
02:28PM 40.7889 -79.7092 307° West 234 269 24,000 -300 Level Cleveland Center
02:29PM 40.8364 -79.7931 307° West 238 274 23,500 -540 Descending Cleveland Center
02:30PM 40.8783 -79.8672 307° West 252 290 22,900 -600 Descending Cleveland Center
02:31PM 40.9217 -79.9431 307° West 258 297 22,300 -780 Descending Cleveland Center
02:32PM 40.9653 -80.0197 307° West 261 300 21,400 -960 Descending Cleveland Center
02:33PM 41.0083 -80.0956 307° West 259 298 20,400 -1,080 Descending Cleveland Center
02:34PM 41.0597 -80.1869 307° West 258 297 19,200 -1,080 Descending Cleveland Center
02:35PM 41.1022 -80.2628 307° West 258 297 18,200 -960 Descending Cleveland Center
02:36PM 41.1464 -80.3403 307° West 263 303 17,300 -1,020 Descending Cleveland Center
02:37PM 41.1906 -80.4231 305° West 262 302 16,200 -660 Descending Cleveland Center
02:38PM 41.2350 -80.5042 306° West 270 311 16,000 -180 Descending Cleveland Center
02:39PM 41.2797 -80.5819 307° West 264 304 15,900 -480 Descending Cleveland Center
02:40PM 41.3239 -80.6639 306° West 270 311 15,100 -1,020 Descending Cleveland Center
02:41PM 41.3661 -80.7683 298° West 271 312 13,900 -1,080 Descending Cleveland Center
02:42PM 41.3956 -80.8475 296° West 261 300 13,000 -1,020 Descending Cleveland Center
02:42PM 41.3992 -80.8550 303° West 261 300 12,900 -1,020 Descending Cleveland Center
02:43PM 41.4147 -80.8922 299° West 256 295 12,500 -1,020 Descending Cleveland Center
02:43PM 41.4319 -80.9403 296° West 258 297 11,900 -1,140 Descending Cleveland Center
02:44PM 41.4439 -80.9717 297° West 256 295 11,500 -1,020 Descending Cleveland Center
02:44PM 41.4542 -81.0272 284° West 248 285 10,900 -1,020 Descending Cleveland Center
02:45PM 41.4553 -81.0600 273° West 237 273 10,500 -1,020 Descending Cleveland Center
02:45PM 41.4556 -81.1161 270° West 241 277 9,900 -1,020 Descending Cleveland Center
02:46PM 41.4567 -81.1411 273° West 238 274 9,600 -1,020 Descending Cleveland Center
02:47PM 41.4600 -81.2072 274° West 243 280 8,900 -1,020 Descending Cleveland Center
02:47PM 41.4622 -81.2450 275° West 242 278 8,400 -1,020 Descending Cleveland Center
02:48PM 41.4650 -81.2950 274° West 240 276 7,900 -1,020 Descending Cleveland Center
02:48PM 41.4675 -81.3294 276° West 233 268 7,400 -1,200 Descending Cleveland Center
02:49PM 41.4708 -81.3953 274° West 233 268 6,700 -1,020 Descending Cleveland Center
02:49PM 41.4725 -81.4169 276° West 232 267 6,400 -1,140 Descending Cleveland Center
02:50PM 41.4767 -81.5097 273° West 232 267 5,300 -1,020 Descending Cleveland Center
02:51PM 41.4828 -81.5831 276° West 233 268 4,500 -780 Descending Cleveland Center
02:52PM 41.4844 -81.6547 272° West 234 269 3,900 -780 Descending Cleveland Center
02:52PM 41.4861 -81.6842 274° West 238 274 3,700 -540 Descending Cleveland Center
02:53PM 41.4847 -81.7367 268° West 222 255 3,400 -420 Descending Cleveland Center
02:53PM 41.4706 -81.7628 234° Southwest 147 169 3,200 -960 Descending Cleveland Center
02:54PM 41.4486 -81.7953 228° Southwest 119 137 2,200 -1,020 Descending Cleveland Center
02:55PM 41.4328 -81.8186 228° Southwest 131 151 1,500 -900 Descending Cleveland Center
02:55PM 41.4292 -81.8258 236° Southwest 111 128 1,300 -720 Descending Cleveland Center
02:56PM 41.4131 -81.8494 228° Southwest 115 132 800 -660 Descending Cleveland Center